User: anonymous   Login
Location: Unspecified
(0.0000°N, 0.0000°E)
Time: 15:12:34
(UTC+00:00)
Language:

Eole - Orbit

View from above orbital plane
View from above orbital plane
View from above satellite
View from above satellite

Ground track
Ground track

The orbit data is extracted from the following two-line orbital elements,

1  5435U 71071A   18051.89634430 -.00000075 +00000-0 +26780-4 0  9995
2  5435 050.1407 195.6417 0110331 289.9405 068.9665 14.55078143433159
Epoch (UTC): 20 February 2018 21:30:44
Eccentricity: 0.0110331
inclination: 50.1407°
perigee height: 631 km
apogee height: 787 km
right ascension of ascending node: 195.6417°
argument of perigee: 289.9405°
revolutions per day: 14.55078143
mean anomaly at epoch: 68.9665°
orbit number at epoch: 43315

The dashed part of the orbit path shows where the satellite is in the earth's shadow,  

DLR